Ft. Stewart, GA

8:25 AM EDT on August 21, 2017 (GMT -0400)
Wright Army Air Field

Weather History for KLHW - July, 2012

Change the Weather History Date:

Friday, July 27, 2012

  Actual Average Record
Temperature  
Mean Temperature 86 °F -  
Max Temperature 96 °F 92 °F 100 °F (1981)
Min Temperature 75 °F 72 °F 66 °F (2000)
Cooling Degree Days 20    
Growing Degree Days 36 (Base 50)    
Moisture  
Dew Point 74 °F    
Average Humidity 72    
Maximum Humidity 91    
Minimum Humidity 43    
Precipitation  
Precipitation 0.08 in - - ()
Sea Level Pressure  
Sea Level Pressure 29.97 in    
Wind  
Wind Speed 8 mph (SW)    
Max Wind Speed 14 mph    
Max Gust Speed 18 mph    
Visibility 9 miles    
Events Rain , Thunderstorm    
Averages and records for this station are not official NWS values.
T = Trace of Precipitation, MM = Missing Value Source: NWS Daily Summary

Daily Weather History Graph

Daily Weather History Graph

Search for Another Location

Airport or City:

Trip Planner

Search our weather history database for the weather conditions in past years. The results will help you decide how hot, cold, wet, or windy it might be!

Date:

Astronomy

Jul. 27, 2012 Rise Set
Actual Time 6:38 AM EDT 8:26 PM EDT
Civil Twilight 6:11 AM EDT 8:53 PM EDT
Nautical Twilight 5:39 AM EDT 9:25 PM EDT
Astronomical Twilight 5:05 AM EDT 9:59 PM EDT
Moon 3:21 PM EDT (7/27) 1:09 AM EDT (7/27)
Length of Visible Light 14h 41m
Length of Day
13h 47m
Waxing Gibbous, 65% of the Moon is Illuminated
Jul 27
Waxing Gibbous
Aug 1
Full
Aug 9
Last Quarter
Aug 17
New
Aug 24
First Quarter

Hourly Weather History & Observations

Time (EDT) Temp. Heat Index Dew Point Humidity Pressure Visibility Wind Dir Wind Speed Gust Speed Precip Events Conditions
12:55 AM 79.3 °F - 70.5 °F 74% 29.94 in 10.0 mi SW 9.2 mph - N/A   Clear
1:55 AM 77.9 °F - 70.9 °F 79% 29.95 in 10.0 mi SW 6.9 mph - N/A   Clear
2:55 AM 77.2 °F - 71.8 °F 83% 29.96 in 10.0 mi SW 6.9 mph - N/A   Clear
3:55 AM 76.3 °F - 71.1 °F 84% 29.96 in 10.0 mi WSW 8.1 mph - N/A   Clear
4:55 AM 75.6 °F - 70.9 °F 85% 29.96 in 10.0 mi SW 5.8 mph - N/A   Clear
5:55 AM 75.0 °F - 70.5 °F 86% 29.97 in 10.0 mi SW 5.8 mph - N/A   Clear
6:55 AM 75.7 °F - 71.1 °F 85% 29.98 in 10.0 mi SW 5.8 mph - N/A   Mostly Cloudy
7:55 AM 75.4 °F - 71.1 °F 86% 30.00 in 10.0 mi SW 9.2 mph - N/A   Scattered Clouds
8:55 AM 78.6 °F - 71.4 °F 78% 30.01 in 10.0 mi WSW 11.5 mph - N/A   Clear
9:55 AM 83.1 °F 88.6 °F 72.3 °F 70% 30.01 in 10.0 mi West 8.1 mph - N/A   Clear
10:55 AM 84.9 °F 91.4 °F 73.0 °F 67% 30.00 in 10.0 mi SW 4.6 mph - N/A   Clear
11:55 AM 89.2 °F 99.0 °F 74.7 °F 62% 30.00 in 10.0 mi WSW 10.4 mph - N/A   Clear
12:55 PM 91.9 °F 103.9 °F 75.6 °F 59% 29.99 in 10.0 mi SW 8.1 mph - N/A   Partly Cloudy
1:55 PM 92.5 °F 103.2 °F 74.5 °F 56% 29.96 in 10.0 mi WSW 5.8 mph - N/A   Scattered Clouds
2:55 PM 92.8 °F 103.4 °F 74.5 °F 55% 29.95 in 10.0 mi SSW 5.8 mph - N/A   Mostly Cloudy
3:55 PM 95.0 °F 105.2 °F 73.9 °F 50% 29.93 in 10.0 mi SW 9.2 mph - N/A   Mostly Cloudy
4:55 PM 96.4 °F 103.7 °F 70.7 °F 43% 29.92 in 10.0 mi SW 13.8 mph - N/A   Partly Cloudy
5:55 PM 95.5 °F 103.0 °F 70.9 °F 45% 29.92 in 10.0 mi SW 12.7 mph - N/A   Partly Cloudy
6:55 PM 92.7 °F 102.4 °F 73.9 °F 54% 29.93 in 10.0 mi WNW 5.8 mph - N/A   Partly Cloudy
7:44 PM 91.4 °F 102.5 °F 75.2 °F 59% 29.94 in 8.0 mi West 5.8 mph - N/A Rain , Thunderstorm Light Thunderstorms and Rain
7:48 PM 89.6 °F 102.2 °F 77.0 °F 66% 29.95 in 2.5 mi South 11.5 mph - N/A Rain , Thunderstorm Heavy Thunderstorms and Rain
7:55 PM 84.6 °F 94.3 °F 76.6 °F 77% 29.96 in 2.5 mi South 12.7 mph 18.4 mph 0.08 in Rain , Thunderstorm Light Thunderstorms and Rain
7:56 PM 84.2 °F 94.1 °F 77.0 °F 79% 29.96 in 3.0 mi SSE 11.5 mph 18.4 mph N/A Rain , Thunderstorm Light Thunderstorms and Rain
7:59 PM 82.4 °F 90.9 °F 77.0 °F 84% 29.96 in 8.0 mi SSE 8.1 mph 18.4 mph N/A Thunderstorm Thunderstorm
8:27 PM 80.6 °F 87.1 °F 77.0 °F 89% 29.97 in 10.0 mi Calm Calm - N/A   Mostly Cloudy
8:55 PM 79.5 °F - 76.6 °F 91% 29.98 in 10.0 mi South 3.5 mph - 0.00 in   Mostly Cloudy
9:55 PM 81.1 °F 87.2 °F 75.0 °F 82% 29.99 in 10.0 mi SW 4.6 mph - N/A   Scattered Clouds
10:55 PM 80.4 °F 85.5 °F 74.5 °F 82% 30.01 in 10.0 mi SSW 4.6 mph - N/A   Clear
11:55 PM 78.8 °F - 74.3 °F 86% 30.02 in 10.0 mi SW 4.6 mph - N/A   Clear